View from above orbital plane
|
View from above satellite
|
Ground track
|
The orbit data is extracted from the following two-line orbital elements,
1 28480U 04046B 21061.31730564 .00000023 00000-0 23658-4 0 9998
2 28480 98.0573 81.9290 0141911 180.8162 190.3038 14.25742545847189
Epoch (UTC): | 02 March 2021 07:36:55 |
Eccentricity: | 0.0141911 |
inclination: | 98.0573° |
perigee height: | 704 km |
apogee height: | 908 km |
right ascension of ascending node: | 81.9290° |
argument of perigee: | 180.8162° |
revolutions per day: | 14.25742545 |
mean anomaly at epoch: | 190.3038° |
orbit number at epoch: | 84718 |
The dashed part of the orbit path shows where the satellite is in the earth's shadow,
|
|